GPS BIIF-1 (PRN 25)

Last updated on Wed Sep 09 2026 00:03:22 GMT+0000 (Coordinated Universal Time)

1 36585U 10022A 26250.72222222 -.00000008 00000+0 00000+0 0 9995 2 36585 54.2617 205.2398 0128718 66.3733 294.0228 2.00566626119245
UTC large
Height (km)
Speed (km/s)
/
Latitude / Longitude
Inclination (degrees)
Orbital Period (minutes)
Azimuth
Elevation
Range (km)
Doppler Factor

Next 0 passes for location: London (51.5072 / 0.1276)

No passes found over London.
GPS BIIF-1 (PRN 25)